TimeEDT,TemperatureF,Dew PointF,Humidity,Sea Level PressureIn,VisibilityMPH,Wind Direction,Wind SpeedMPH,Gust SpeedMPH,PrecipitationIn,Events,Conditions,WindDirDegrees,DateUTC
12:53 AM,46.0,39.0,76,29.58,10.0,Calm,Calm,-,N/A,,Mostly Cloudy,0,2012-11-02 04:53:00
1:53 AM,45.0,39.9,82,29.58,10.0,Calm,Calm,-,N/A,,Overcast,0,2012-11-02 05:53:00
2:53 AM,44.1,39.9,85,29.58,10.0,South,3.5,-,N/A,,Overcast,170,2012-11-02 06:53:00
3:53 AM,44.1,39.9,85,29.58,10.0,Calm,Calm,-,N/A,,Overcast,0,2012-11-02 07:53:00
4:53 AM,44.1,39.9,85,29.59,10.0,Calm,Calm,-,N/A,,Overcast,0,2012-11-02 08:53:00
5:53 AM,44.1,41.0,89,29.58,10.0,Calm,Calm,-,N/A,,Overcast,0,2012-11-02 09:53:00
6:53 AM,46.9,37.9,71,29.59,10.0,Calm,Calm,-,N/A,,Overcast,0,2012-11-02 10:53:00
7:53 AM,46.0,39.0,76,29.60,10.0,Calm,Calm,-,0.00,,Mostly Cloudy,0,2012-11-02 11:53:00
8:53 AM,46.9,39.0,74,29.61,10.0,Calm,Calm,-,N/A,,Overcast,0,2012-11-02 12:53:00
9:53 AM,48.0,37.9,68,29.62,10.0,NW,5.8,-,N/A,,Overcast,310,2012-11-02 13:53:00
10:53 AM,48.9,37.9,66,29.61,10.0,West,4.6,-,N/A,,Overcast,280,2012-11-02 14:53:00
11:27 AM,50.0,37.4,62,29.61,10.0,West,5.8,-,N/A,,Overcast,270,2012-11-02 15:27:00
11:39 AM,51.8,37.4,58,29.61,10.0,WNW,5.8,-,N/A,,Overcast,300,2012-11-02 15:39:00
11:53 AM,52.0,37.9,59,29.60,10.0,Variable,3.5,-,N/A,,Overcast,0,2012-11-02 15:53:00
12:53 PM,53.1,34.0,48,29.58,10.0,West,11.5,18.4,N/A,,Mostly Cloudy,270,2012-11-02 16:53:00
1:53 PM,55.0,33.1,43,29.57,10.0,NNW,4.6,-,N/A,,Mostly Cloudy,340,2012-11-02 17:53:00
2:53 PM,52.0,33.1,49,29.57,10.0,North,6.9,-,N/A,,Overcast,350,2012-11-02 18:53:00
3:53 PM,50.0,34.0,54,29.59,10.0,NW,12.7,19.6,N/A,,Overcast,320,2012-11-02 19:53:00
4:53 PM,50.0,33.1,52,29.60,10.0,WNW,8.1,-,N/A,,Overcast,300,2012-11-02 20:53:00
5:53 PM,48.9,33.1,54,29.62,10.0,NW,5.8,-,N/A,,Overcast,310,2012-11-02 21:53:00
6:53 PM,46.9,34.0,61,29.65,10.0,NW,5.8,-,N/A,,Overcast,310,2012-11-02 22:53:00
7:53 PM,46.9,32.0,56,29.67,10.0,NW,9.2,-,N/A,,Overcast,310,2012-11-02 23:53:00
8:53 PM,46.0,32.0,58,29.68,10.0,WNW,8.1,-,N/A,,Overcast,300,2012-11-03 00:53:00
9:53 PM,45.0,30.0,56,29.70,10.0,NW,13.8,21.9,N/A,,Mostly Cloudy,320,2012-11-03 01:53:00
10:53 PM,44.1,30.9,60,29.70,10.0,NW,6.9,-,N/A,,Overcast,320,2012-11-03 02:53:00
11:53 PM,44.1,30.9,60,29.69,10.0,NW,8.1,-,N/A,,Mostly Cloudy,320,2012-11-03 03:53:00